Weather History for KCDC - December, 2012

Change the Weather History Date:

Wednesday, December 26, 2012

  Actual Average Record
Temperature  
Mean Temperature 27 °F 28 °F  
Max Temperature 31 °F 41 °F 61 °F (1955)
Min Temperature 23 °F 16 °F -15 °F (1962)
Degree Days  
Heating Degree Days 38 37  
Month to date heating degree days 856 937  
Since 1 July heating degree days 1992 2379  
Cooling Degree Days 0 0  
Month to date cooling degree days 0 0  
Year to date cooling degree days 715 588  
Moisture  
Dew Point 20 °F    
Average Humidity 67    
Maximum Humidity 92    
Minimum Humidity 42    
Precipitation  
Precipitation T in 0.03 in 0.41 in (1979)
Month to date precipitation 1.00 0.70  
Year to date precipitation 12.45 11.17  
Sea Level Pressure  
Sea Level Pressure 29.77 in    
Wind  
Wind Speed 12 mph (SSW)    
Max Wind Speed 24 mph    
Max Gust Speed 31 mph    
Visibility 8 miles    
Events Snow    
T = Trace of Precipitation, MM = Missing Value Source: NWS Daily Summary

Daily Weather History Graph

Daily Weather History Graph

Search for Another Location

Airport or City:

Trip Planner

Search our weather history database for the weather conditions in past years. The results will help you decide how hot, cold, wet, or windy it might be!

Date:

Astronomy

Dec. 26, 2012 Rise Set
Actual Time 7:46 AM MST 5:20 PM MST
Civil Twilight 7:16 AM MST 5:49 PM MST
Nautical Twilight 6:44 AM MST 6:22 PM MST
Astronomical Twilight 6:12 AM MST 6:54 PM MST
Moon 4:16 PM MST (12/26) 6:13 AM MST (12/26)
Length of Visible Light 10h 32m
Length of Day
9h 34m
Waxing Gibbous, 98% of the Moon is Illuminated
Dec 26
Waxing Gibbous
Dec 28
Full
Jan 4
Last Quarter
Jan 11
New
Jan 18
First Quarter

Hourly Weather History & Observations

Time (MST) Temp. Windchill Dew Point Humidity Pressure Visibility Wind Dir Wind Speed Gust Speed Precip Events Conditions
12:53 AM 30.0 °F 23.2 °F 12.0 °F 47% 29.88 in 10.0 mi SSW 6.9 mph - N/A   Overcast
1:53 AM 28.9 °F 16.5 °F 8.1 °F 41% 29.86 in 10.0 mi SW 18.4 mph 27.6 mph N/A   Scattered Clouds
2:53 AM 30.0 °F 21.1 °F 8.1 °F 40% 29.84 in 10.0 mi SSW 10.4 mph 19.6 mph N/A   Mostly Cloudy
3:53 AM 26.1 °F 21.9 °F 18.0 °F 71% 29.81 in 10.0 mi Variable 3.5 mph - N/A   Overcast
4:53 AM 30.0 °F 21.7 °F 10.0 °F 43% 29.78 in 10.0 mi SW 9.2 mph - N/A   Overcast
5:53 AM 30.0 °F 17.2 °F 10.9 °F 45% 29.79 in 10.0 mi SW 20.7 mph 29.9 mph N/A   Overcast
6:53 AM 28.0 °F 16.5 °F 15.1 °F 58% 29.81 in 10.0 mi SW 15.0 mph 25.3 mph N/A   Mostly Cloudy
7:53 AM 26.1 °F 12.3 °F 19.0 °F 75% 29.83 in 10.0 mi SW 19.6 mph 29.9 mph N/A   Overcast
8:53 AM 26.1 °F 13.1 °F 21.0 °F 81% 29.82 in 9.0 mi SW 17.3 mph 25.3 mph 0.00 in   Overcast
9:53 AM 28.0 °F 19.3 °F 19.9 °F 72% 29.81 in 10.0 mi SW 9.2 mph - N/A   Overcast
10:19 AM 28.4 °F 18.0 °F 19.4 °F 69% 29.77 in 10.0 mi SW 12.7 mph 20.7 mph N/A   Overcast
10:53 AM 28.9 °F 17.7 °F 21.0 °F 72% 29.80 in 10.0 mi SW 15.0 mph - 0.00 in   Overcast
11:53 AM 30.9 °F 19.8 °F 17.1 °F 57% 29.76 in 10.0 mi SSW 16.1 mph - N/A   Overcast
12:37 PM 28.4 °F 17.5 °F 19.4 °F 69% 29.73 in 4.0 mi SW 13.8 mph 23.0 mph 0.00 in Snow Light Snow
12:53 PM 28.0 °F 17.5 °F 21.9 °F 78% 29.76 in 2.0 mi SW 12.7 mph 21.9 mph 0.00 in Snow Light Snow
1:29 PM 28.4 °F 18.5 °F 24.8 °F 86% 29.72 in 3.0 mi SW 11.5 mph - 0.00 in Snow Light Snow
1:44 PM 28.4 °F 17.5 °F 24.8 °F 86% 29.72 in 9.0 mi SSW 13.8 mph - 0.00 in Snow Light Snow
1:53 PM 28.0 °F 17.0 °F 24.1 °F 85% 29.74 in 6.0 mi SSW 13.8 mph - 0.00 in Snow Light Snow
2:25 PM 26.6 °F 16.2 °F 24.8 °F 93% 29.72 in 1.8 mi SSW 11.5 mph - 0.00 in Snow Light Snow
2:35 PM 26.6 °F 16.2 °F 24.8 °F 93% 29.72 in 1.2 mi SSW 11.5 mph - 0.00 in Snow Light Snow
2:48 PM 26.6 °F 15.7 °F 24.8 °F 93% 29.72 in 1.5 mi SSW 12.7 mph - 0.00 in Snow Light Snow
2:53 PM 27.0 °F 18.0 °F 24.1 °F 89% 29.75 in 1.8 mi South 9.2 mph - 0.00 in Snow Light Snow
3:01 PM 28.4 °F 18.5 °F 24.8 °F 86% 29.72 in 3.0 mi SSW 11.5 mph - 0.00 in Snow Light Snow
3:17 PM 28.4 °F 22.2 °F 24.8 °F 86% 29.72 in 7.0 mi SSW 5.8 mph - 0.00 in Snow Light Snow
3:36 PM 28.4 °F 21.2 °F 24.8 °F 86% 29.72 in 3.0 mi SSW 6.9 mph - 0.00 in Snow Light Snow
3:53 PM 28.0 °F 19.3 °F 23.0 °F 81% 29.77 in 2.5 mi SSW 9.2 mph - 0.00 in Snow Light Snow
4:04 PM 26.6 °F 18.2 °F 23.0 °F 86% 29.72 in 8.0 mi SSW 8.1 mph - 0.00 in   Overcast
4:53 PM 28.0 °F 20.8 °F 23.0 °F 81% 29.75 in 10.0 mi SSW 6.9 mph - 0.00 in   Overcast
5:53 PM 27.0 °F 18.0 °F 21.9 °F 81% 29.76 in 10.0 mi SSW 9.2 mph - N/A   Mostly Cloudy
6:23 PM 26.6 °F 16.2 °F 21.2 °F 80% 29.74 in 10.0 mi SSW 11.5 mph - N/A   Scattered Clouds
6:53 PM 26.1 °F 17.6 °F 21.9 °F 84% 29.80 in 10.0 mi SSW 8.1 mph - N/A   Scattered Clouds
7:00 PM 24.8 °F 16.1 °F 21.2 °F 86% 29.76 in 10.0 mi South 8.1 mph - N/A   Mostly Cloudy
7:53 PM 27.0 °F 21.6 °F 19.9 °F 75% 29.81 in 10.0 mi South 4.6 mph - N/A   Overcast
8:44 PM 28.4 °F 22.2 °F 21.2 °F 74% 29.77 in 10.0 mi South 5.8 mph - N/A   Overcast
8:53 PM 28.0 °F 21.7 °F 21.0 °F 75% 29.82 in 7.0 mi South 5.8 mph - 0.00 in Snow Light Snow
9:53 PM 27.0 °F 18.7 °F 21.9 °F 81% 29.82 in 10.0 mi SSW 8.1 mph - 0.00 in   Overcast
10:53 PM 27.0 °F 20.5 °F 21.9 °F 81% 29.81 in 9.0 mi Variable 5.8 mph - 0.00 in   Overcast
11:53 PM 26.1 °F 19.4 °F 19.9 °F 78% 29.81 in 10.0 mi SW 5.8 mph - N/A   Mostly Cloudy